Sunday, November 19, 2017, 8:49 PM EST
Back to Local

KBTV, Burlington International

Location: South Burlington, VT, United States Lat: 44.467
Local Time: 8:49 PM EST ( 1:49 GMT) Lon: -73.15
Time Zone: US/Eastern Elev: 334 ft

Show me the last for .
Show Decoded

2017-11-19 19:54 METAR KBTV 200054Z 30012KT 10SM OVC029 01/M05 A2958 RMK AO2 PK WND 30026/0029
                 SLP018 T00061050 =
2017-11-19 19:16 METAR KBTV 200016Z 29015G19KT 10SM SCT029 BKN036 OVC060 01/M05 A2956 RMK AO2
                 T00111050 =
2017-11-19 18:54 METAR KBTV 192354Z 31013G20KT 10SM OVC028 01/M05 A2956 RMK AO2 SLP011 60000
                 T00111050 10017 20006 51012 =
2017-11-19 17:54 METAR KBTV 192254Z 30007KT 10SM OVC033 01/M05 A2956 RMK AO2 SLP010 T00111050 =
2017-11-19 16:54 METAR KBTV 192154Z 29011G18KT 10SM OVC036 01/M06 A2954 RMK AO2 SNB12E36 SLP005
                 P0000 T00061061 =
2017-11-19 15:54 METAR KBTV 192054Z 30012G26KT 10SM BKN029 OVC036 01/M06 A2952 RMK AO2 PK WND
                 30027/2002 SLP999 60000 T00061061 53049 =
2017-11-19 14:54 METAR KBTV 191954Z 30016G24KT 10SM OVC029 01/M05 A2946 RMK AO2 SNE15 SLP977
                 P0000 T00111050 =
2017-11-19 14:36 METAR KBTV 191936Z 30012G22KT 10SM OVC029 01/M05 A2944 RMK AO2 SNE15 P0000
                 T00111050 =
2017-11-19 13:54 METAR KBTV 191854Z 31016G22KT 9SM -SN OVC033 01/M05 A2940 RMK AO2 SLP959 P0000
                 T00111050 =
2017-11-19 13:32 METAR KBTV 191832Z 29013G21KT 9SM -SN OVC031 01/M05 A2939 RMK AO2 P0000
                 T00111050 =
2017-11-19 12:54 METAR KBTV 191754Z 29014G22KT 9SM -SN OVC029 02/M04 A2937 RMK AO2 SLP950 P0001
                 60018 T00171044 10094 20017 53037 =
2017-11-19 12:20 METAR KBTV 191720Z 27017G25KT 5SM -SN OVC028 02/M04 A2935 RMK AO2 P0001
                 T00171039 =
2017-11-19 11:54 METAR KBTV 191654Z 30016G29KT 6SM -SN SCT027 BKN032 OVC050 02/M03 A2933 RMK AO2
                 PK WND 26029/1648 PRESRR SLP934 P0001 T00221033 =
2017-11-19 11:21 METAR KBTV 191621Z 29014G21KT 8SM -SN BKN029 BKN041 OVC060 03/M02 A2929 RMK AO2
                 PK WND 31028/1603 P0001 T00281022 =
2017-11-19 10:54 METAR KBTV 191554Z 30020G31KT 5SM -SN FEW027 BKN047 BKN055 03/M02 A2927 RMK AO2
                 PK WND 30033/1535 RAE26SNB26 SLP913 P0001 T00281022 =
2017-11-19 10:52 METAR KBTV 191552Z 30013G27KT 5SM -SN FEW027 BKN047 BKN055 03/M02 A2926 RMK AO2
                 PK WND 30033/1535 RAE26SNB26 PRESRR P0001 =
2017-11-19 10:27 METAR KBTV 191527Z 30018G27KT 10SM -SN BKN027 BKN031 OVC041 04/M01 A2923 RMK AO2
                 PK WND 30029/1516 RAE26SNB26 PRESRR P0001 T00391011 =
2017-11-19 09:54 METAR KBTV 191454Z 28016G25KT 9SM -RA FEW007 BKN023 OVC028 04/01 A2917 RMK AO2
                 PK WND 30028/1441 PRESRR SLP880 P0011 60015 T00440011 53046 =
2017-11-19 09:47 METAR KBTV 191447Z 29015G28KT 8SM -RA FEW005 SCT012 OVC019 04/02 A2915 RMK AO2
                 PK WND 30028/1441 PRESRR P0011 T00440017 =
2017-11-19 09:44 METAR KBTV 191444Z 29018G28KT 7SM -RA SCT007 SCT012 OVC019 05/02 A2915 RMK AO2
                 PK WND 30028/1441 PRESRR P0011 T00500022 =
2017-11-19 09:37 METAR KBTV 191437Z COR 29016G26KT 4SM RA BKN005 BKN012 OVC017 06/03 A2913 =
2017-11-19 09:14 METAR KBTV 191414Z 30012G25KT 2SM RA BR OVC005 08/07 A2908 RMK AO2 CIG 003V009
                 PRESRR VIS 1 1/2V3 P0003 T00830067 =
2017-11-19 09:10 METAR KBTV 191410Z 30018G25KT 3SM RA BR OVC005 08/07 A2907 RMK AO2 CIG 003V008
                 PRESRR VIS 2V4 P0000 T00830072 =
2017-11-19 08:54 METAR KBTV 191354Z 22007KT 5SM -RA BR OVC006 09/08 A2904 RMK AO2 RAE00B54 SLP834
                 P0000 T00940078 =
2017-11-19 08:32 METAR KBTV 191332Z 22006KT 5SM BR OVC007 09/08 A2903 RMK AO2 RAE00 P0000
                 T00940078 =
2017-11-19 08:13 METAR KBTV 191313Z 21004KT 10SM OVC008 09/08 A2902 RMK AO2 RAE00 P0000 T00890078
                 =
2017-11-19 07:54 METAR KBTV 191254Z 18006KT 8SM -RA BR BKN007 OVC012 09/07 A2902 RMK AO2 RAB14
                 SLP829 P0004 T00890072 =
2017-11-19 07:47 METAR KBTV 191247Z 19006KT 5SM -RA BR BKN007 OVC012 09/07 A2903 RMK AO2 RAB14
                 P0004 T00890072 =
2017-11-19 07:03 METAR KBTV 191203Z 17007KT 10SM SCT007 OVC014 08/07 A2903 RMK AO2 P0001
                 T00830072 =
2017-11-19 06:54 METAR KBTV 191154Z 16006KT 10SM BKN007 OVC012 08/07 A2903 RMK AO2 RAE35 SLP833
                 P0002 60005 70018 T00830072 10083 20044 56027 =
2017-11-19 06:18 METAR KBTV 191118Z 16006KT 10SM -RA SCT008 OVC012 08/07 A2904 RMK AO2 P0002
                 T00830067 =
2017-11-19 06:00 METAR KBTV 191100Z 12003KT 9SM -RA BKN009 OVC013 07/06 A2905 RMK AO2 P0001
                 T00670056 =
2017-11-19 05:54 METAR KBTV 191054Z 11003KT 10SM -RA OVC013 07/06 A2905 RMK AO2 SLP840 P0003
                 T00670056 =
2017-11-19 05:29 METAR KBTV 191029Z 16005KT 10SM -RA OVC014 08/07 A2906 RMK AO2 PRESFR P0002
                 T00830067 =
2017-11-19 04:54 METAR KBTV 190954Z 18012KT 10SM -RA FEW018 BKN029 OVC036 08/07 A2909 RMK AO2
                 RAB29E40B54 SLP852 P0000 T00830067 =
2017-11-19 04:42 METAR KBTV 190942Z 17012G21KT 8SM SCT016 BKN036 OVC047 08/07 A2909 RMK AO2
                 RAB29E40 P0000 T00830067 =
2017-11-19 03:54 METAR KBTV 190854Z 17007KT 10SM OVC018 08/06 A2911 RMK AO2 SLP860 60000
                 T00780056 58045 =
2017-11-19 02:54 METAR KBTV 190754Z 17008KT 10SM OVC017 07/06 A2917 RMK AO2 SLP881 T00720056 =
2017-11-19 01:54 METAR KBTV 190654Z 13006KT 10SM OVC019 05/03 A2922 RMK AO2 RAE35 SLP898 P0000
                 T00500033 =
2017-11-19 00:54 METAR KBTV 190554Z 14006KT 10SM -RA FEW008 OVC019 05/03 A2924 RMK AO2 RAB29
                 SLP905 P0000 60013 I6000 T00500033 10056 20022 58048 =
2017-11-19 00:29 METAR KBTV 190529Z 12005KT 10SM -RA SCT008 BKN020 OVC026 04/03 A2927 RMK AO2
                 RAB29 P0000 T00440028 =
2017-11-18 23:54 METAR KBTV 190454Z 11003KT 8SM SCT012 BKN021 OVC065 04/03 A2929 RMK AO2
                 RAE01B24E52 SLP923 "LAST" P0002 T00390028 400561067 =
2017-11-18 23:40 METAR KBTV 190440Z 13007KT 5SM -RA BR SCT020 BKN036 OVC060 04/02 A2930 RMK AO2
                 RAE01B24 P0001 T00390022 =
2017-11-18 22:54 METAR KBTV 190354Z 00000KT 10SM -RA OVC019 03/02 A2934 RMK AO2 SLP939 P0001
                 T00280017 =
2017-11-18 21:54 METAR KBTV 190254Z 11005KT 10SM -RA OVC022 02/01 A2939 RMK AO2 SLP955 P0007
                 60010 I1000 I3000 T00220006 58043 =
2017-11-18 20:54 METAR KBTV 190154Z 11005KT 7SM RA OVC024 02/M01 A2944 RMK AO2 RAB06 SLP973 P0003
                 T00221006 =

Support USWX by starting your Amazon purchase here.